Location: Unspecified
(52.3721°N, 0.0000°E)
Time: 01:14:09
(UTC+00:00)

CAS-6 - Visible Passes

Search period start: 04 April 2026 00:00
Search period end: 14 April 2026 00:00
Orbit: 600 x 619 km, 97.8° (Epoch: 29 March)

Date Brightness Start Highest point End Pass type
(mag) Time Alt. Az. Time Alt. Az. Time Alt. Az.
4 Apr ? 21:11:23 47° ENE 21:11:35 47° ENE 21:15:43 10° N visible
4 Apr ? 22:48:19 22° W 22:48:19 22° W 22:51:11 10° NW visible
5 Apr ? 19:49:12 10° ENE 19:50:24 11° NE 19:51:36 10° NE visible
5 Apr ? 21:25:22 63° E 21:25:28 64° ENE 21:29:44 10° N visible
5 Apr ? 23:02:17 17° W 23:02:17 17° W 23:04:43 10° NW visible
6 Apr ? 20:02:24 11° E 20:04:08 14° NE 20:06:22 10° NNE visible
6 Apr ? 21:39:20 85° E 21:39:23 85° ENE 21:43:42 10° NNW visible
6 Apr ? 23:16:16 13° W 23:16:16 13° W 23:17:59 10° WNW visible
7 Apr ? 20:16:23 15° E 20:17:53 18° ENE 20:20:46 10° NNE visible
7 Apr ? 21:53:19 72° WSW 21:53:19 72° WSW 21:57:38 10° NNW visible
8 Apr ? 20:30:21 20° E 20:31:40 23° ENE 20:35:02 10° N visible
8 Apr ? 22:07:18 53° W 22:07:18 53° W 22:11:30 10° NNW visible
9 Apr ? 20:44:20 25° E 20:45:28 29° ENE 20:49:11 10° N visible
9 Apr ? 22:21:16 39° W 22:21:16 39° W 22:25:20 10° NNW visible
10 Apr ? 20:58:18 32° E 20:59:18 37° ENE 21:03:17 10° N visible
10 Apr ? 22:35:14 29° W 22:35:17 29° W 22:39:05 10° NNW visible
11 Apr ? 21:12:17 42° ESE 21:13:09 49° ENE 21:17:19 10° N visible
11 Apr ? 22:49:13 22° W 22:49:20 22° W 22:52:44 10° NW visible
12 Apr ? 19:50:30 10° ENE 19:51:56 11° NE 19:53:23 10° NNE visible
12 Apr ? 21:26:15 54° SE 21:27:02 66° ENE 21:31:19 10° N visible
12 Apr ? 23:03:11 17° W 23:03:24 17° W 23:06:14 10° NW visible
13 Apr ? 20:03:18 10° E 20:05:39 15° NE 20:08:02 10° NNE visible
13 Apr ? 21:40:13 62° SSE 21:40:56 88° ENE 21:45:16 10° NNW visible
13 Apr ? 23:17:09 13° W 23:17:30 13° W 23:19:26 10° WNW visible
